Charlottesville, VA

8:20 PM EDT on May 26, 2017 (GMT -0400)
Charlottesville-Albemarle

Weather History for KCHO - January, 2013

Change the Weather History Date:

Sunday, January 6, 2013

  Actual Average Record
Temperature  
Mean Temperature 40 °F 35 °F  
Max Temperature 50 °F 44 °F 71 °F (1950)
Min Temperature 30 °F 26 °F 2 °F (1912)
Degree Days  
Heating Degree Days 25 30  
Month to date heating degree days 180  
Since 1 July heating degree days 1916  
Cooling Degree Days 0 0  
Month to date cooling degree days 0  
Year to date cooling degree days 0  
Moisture  
Dew Point 27 °F    
Average Humidity 56    
Maximum Humidity 88    
Minimum Humidity 38    
Precipitation  
Precipitation 0.00 in 0.10 in 0.54 in (2002)
Month to date precipitation 0.55  
Year to date precipitation 0.55  
Sea Level Pressure  
Sea Level Pressure 30.10 in    
Wind  
Wind Speed 2 mph (SSW)    
Max Wind Speed 7 mph    
Max Gust Speed -    
Visibility 10 miles    
Events Rain    
T = Trace of Precipitation, MM = Missing Value Source: NWS Daily Summary

Daily Weather History Graph

Daily Weather History Graph

Search for Another Location

Airport or City:

Trip Planner

Search our weather history database for the weather conditions in past years. The results will help you decide how hot, cold, wet, or windy it might be!

Date:

Astronomy

Jan. 06, 2013 Rise Set
Actual Time 7:30 AM EST 5:09 PM EST
Civil Twilight 7:01 AM EST 5:38 PM EST
Nautical Twilight 6:28 AM EST 6:11 PM EST
Astronomical Twilight 5:56 AM EST 6:43 PM EST
Moon 1:44 AM EST (1/6) 12:33 PM EST (1/6)
Length of Visible Light 10h 37m
Length of Day
9h 38m
Waning Crescent, 33% of the Moon is Illuminated
Jan 6
Waning Crescent
Jan 11
New
Jan 18
First Quarter
Jan 26
Full
Feb 3
Last Quarter

Hourly Weather History & Observations

Time (EST) Temp. Windchill Dew Point Humidity Pressure Visibility Wind Dir Wind Speed Gust Speed Precip Events Conditions
12:53 AM 39.0 °F 36.8 °F 28.9 °F 67% 30.16 in 10.0 mi SSW 3.5 mph - 0.00 in Rain Light Rain
1:53 AM 39.0 °F - 28.9 °F 67% 30.15 in 10.0 mi Calm Calm - 0.00 in Rain Light Rain
2:53 AM 39.0 °F 36.8 °F 28.9 °F 67% 30.13 in 10.0 mi SSE 3.5 mph - 0.00 in   Overcast
3:53 AM 37.0 °F 33.3 °F 28.9 °F 73% 30.12 in 10.0 mi SSW 4.6 mph - N/A   Partly Cloudy
4:53 AM 37.9 °F - 27.0 °F 65% 30.11 in 10.0 mi Calm Calm - N/A   Clear
5:53 AM 39.0 °F - 26.1 °F 60% 30.11 in 10.0 mi Calm Calm - N/A   Clear
6:53 AM 32.0 °F - 26.1 °F 79% 30.13 in 10.0 mi Calm Calm - N/A   Clear
7:53 AM 30.0 °F - 27.0 °F 88% 30.13 in 10.0 mi Calm Calm - N/A   Clear
8:53 AM 37.0 °F - 28.9 °F 73% 30.14 in 10.0 mi Calm Calm - N/A   Clear
9:53 AM 42.1 °F 40.2 °F 30.9 °F 65% 30.14 in 10.0 mi SE 3.5 mph - N/A   Clear
11:53 AM 48.9 °F - 25.0 °F 39% 30.09 in 10.0 mi Variable 6.9 mph - N/A   Clear
12:53 PM 50.0 °F - 25.0 °F 38% 30.06 in 10.0 mi Variable 4.6 mph - N/A   Clear
1:53 PM 50.0 °F - 25.0 °F 38% 30.04 in 10.0 mi Variable 5.8 mph - N/A   Partly Cloudy
2:53 PM 50.0 °F - 25.0 °F 38% 30.04 in 10.0 mi Variable 6.9 mph - N/A   Partly Cloudy
3:53 PM 48.0 °F - 25.0 °F 41% 30.04 in 10.0 mi WNW 5.8 mph - N/A   Partly Cloudy
4:53 PM 46.9 °F - 26.1 °F 44% 30.05 in 10.0 mi WSW 4.6 mph - N/A   Overcast
5:53 PM 44.1 °F - 26.1 °F 49% 30.06 in 10.0 mi Calm Calm - N/A   Partly Cloudy
6:53 PM 43.0 °F - 26.1 °F 51% 30.09 in 10.0 mi Calm Calm - N/A   Scattered Clouds
7:53 PM 44.1 °F - 26.1 °F 49% 30.10 in 10.0 mi Calm Calm - N/A   Overcast
8:53 PM 44.1 °F - 26.1 °F 49% 30.11 in 10.0 mi Calm Calm - N/A   Overcast
9:53 PM 43.0 °F - 27.0 °F 53% 30.11 in 10.0 mi Calm Calm - N/A   Overcast
10:53 PM 43.0 °F 41.3 °F 26.1 °F 51% 30.12 in 10.0 mi SW 3.5 mph - N/A   Overcast
11:53 PM 43.0 °F - 26.1 °F 51% 30.14 in 10.0 mi Calm Calm - N/A   Overcast